Weather Roundup
Issued by NWS Springfield, MO

Home | Current Version | Previous Version | Text Only | Print | Product List | Glossary On
Versions: 1 2 3 4 5 6 7 8 9 10 11 12 13 14 15 16 17 18 19 20 21 22 23 24 25 26 27 28 29 30 31 32 33 34 35 36 37 38 39 40 41 42 43 44 45 46 47 48 49 50
000
NZUS99 KSGF 050359
HRRSGF

HOURLY WEATHER
NATIONAL WEATHER SERVICE SPRINGFIELD MO
1100 PM CDT MON MAY 04 2015

......SGF CWA......

CITY           SKY/WX    TMP DP  RH WIND       PRES   REMARKS
SPRINGFIELD    CLEAR     66  54  65 S7        30.13R
JOPLIN         PTCLDY    65  58  78 SE5       30.11R
WEST PLAINS    CLEAR     68  54  60 S6        30.17R
ROLLA          MOCLDY    69  55  60 S8        30.12R
OSAGE BEACH    MOCLDY    70  54  56 CALM      30.12R

......SURROUNDING SGF CWA......

CITY           SKY/WX    TMP DP  RH WIND       PRES   REMARKS
CHANUTE        PTCLDY    67  59  75 SE5       30.10R
PARSONS        PTCLDY    63  59  87 CALM      30.10R
COFFEYVILLE    CLEAR     67  57  70 SE3       30.08R
EMPORIA        CLOUDY    65  58  78 N15       30.12R
SILOAM SPRINGS CLEAR     64  50  59 SE5       30.14R
HARRISON AR    CLEAR     66  54  65 S3        30.15R
NEAR YELLVILLE CLEAR     70  55  60 CALM      30.13R

......KANSAS AND MISSOURI......

CITY           SKY/WX    TMP DP  RH WIND       PRES   REMARKS
KANSAS CTY INT LGT RAIN  62  61  96 CALM      30.11S
DOWNTOWN KC    LGT RAIN  64  60  87 N5        30.10R FOG
COLUMBIA       CLOUDY    69  59  70 S8        30.09R
SEDALIA        CLOUDY    73  60  63 SW6       30.10R
ST JOSEPH      RAIN      62  61  96 S12       30.11R FOG
ST LOUIS       MOCLDY    77  53  43 S12       30.11R
SPIRIT OF STL  PTCLDY    73  54  51 S8        30.09S
KIRKSVILLE     CLOUDY    69  63  81 NW14G21   30.10R
WICHITA        CLOUDY    71  57  61 SE8       30.05R
TOPEKA         CLOUDY    63  61  93 W14       30.17R
OLATHE         CLOUDY    65  62  90 NW12      30.11R THUNDER

......TENNESSEE......

CITY           SKY/WX    TMP DP  RH WIND       PRES   REMARKS
MEMPHIS        CLEAR     73  56  54 SE9       30.16R
NASHVILLE      CLEAR     64  55  72 S3        30.23R

......ARKANSAS.......

CITY           SKY/WX    TMP DP  RH WIND       PRES   REMARKS
FAYETTEVILLE   CLEAR     57  55  93 N3        30.13R
FT SMITH       CLEAR     69  54  58 CALM      30.09R
LITTLE ROCK    CLEAR     68  55  63 S6        30.12R

......OKLAHOMA.......

CITY           SKY/WX    TMP DP  RH WIND       PRES   REMARKS
TULSA          PTCLDY    72  56  57 S7        30.06R
PONCA CITY     CLOUDY    71  58  63 SE10      30.05R
MCALESTER      CLEAR     68  53  58 SE7       30.06R
OKLAHOMA CITY  MOCLDY    68  58  70 SE12      30.03R

......IOWA............

CITY           SKY/WX    TMP DP  RH WIND       PRES   REMARKS
DES MOINES     CLOUDY    64  60  87 E9        30.07F
QUAD CITIES    RAIN      65  62  90 E8        30.10S FOG

......ILLINOIS........

CITY           SKY/WX    TMP DP  RH WIND       PRES   REMARKS
QUINCY         CLOUDY    70  61  73 E8        30.08S
CHICAGO        CLOUDY    56  37  49 NE7       30.17F




USA.gov is the U.S. government's official web portal to all federal, state and local government web resources and services.